Time,TemperatureF,DewpointF,PressureIn,WindDirection,WindDirectionDegrees,WindSpeedMPH,WindSpeedGustMPH,Humidity,HourlyPrecipIn,Conditions,Clouds,dailyrainin,SoftwareType,DateUTC
2013-08-18 00:01:00,62.0,59.9,30.08,WSW,254,0.0,0.0,93,0.00,,,0.00,WeatherCatV1.11B39,2013-08-18 04:01:00,
2013-08-18 00:06:00,61.9,59.8,30.08,WSW,254,0.0,0.0,93,0.00,,,0.00,WeatherCatV1.11B39,2013-08-18 04:06:00,
2013-08-18 00:11:00,62.0,59.9,30.09,WSW,254,0.0,0.0,93,0.00,,,0.00,WeatherCatV1.11B39,2013-08-18 04:11:00,
2013-08-18 00:16:00,62.0,59.9,30.08,WSW,254,0.0,0.0,93,0.00,,,0.00,WeatherCatV1.11B39,2013-08-18 04:16:00,
2013-08-18 00:21:00,61.8,60.1,30.09,WSW,254,0.0,0.0,94,0.00,,,0.00,WeatherCatV1.11B39,2013-08-18 04:21:00,
2013-08-18 00:26:00,61.6,59.6,30.09,WSW,254,0.0,0.0,93,0.00,,,0.00,WeatherCatV1.11B39,2013-08-18 04:26:00,
2013-08-18 00:31:00,61.6,59.6,30.08,WSW,254,0.0,0.0,93,0.00,,,0.00,WeatherCatV1.11B39,2013-08-18 04:31:00,
2013-08-18 00:36:00,61.5,59.5,30.08,WSW,254,0.0,0.0,93,0.00,,,0.00,WeatherCatV1.11B39,2013-08-18 04:36:00,
2013-08-18 00:41:00,61.5,59.8,30.08,WSW,254,0.0,0.0,94,0.00,,,0.00,WeatherCatV1.11B39,2013-08-18 04:41:00,
2013-08-18 00:46:00,61.3,59.6,30.08,WSW,254,0.0,0.0,94,0.00,,,0.00,WeatherCatV1.11B39,2013-08-18 04:46:00,
2013-08-18 00:51:00,61.2,59.5,30.08,WSW,254,0.0,0.0,94,0.00,,,0.00,WeatherCatV1.11B39,2013-08-18 04:51:00,
2013-08-18 00:56:00,61.2,59.5,30.08,WSW,254,0.0,0.0,94,0.00,,,0.00,WeatherCatV1.11B39,2013-08-18 04:56:00,
2013-08-18 01:01:00,61.2,59.5,30.07,WSW,254,0.0,0.0,94,0.00,,,0.00,WeatherCatV1.11B39,2013-08-18 05:01:00,
2013-08-18 01:06:00,61.0,59.3,30.07,WSW,254,0.0,0.0,94,0.00,,,0.00,WeatherCatV1.11B39,2013-08-18 05:06:00,
2013-08-18 01:11:00,60.9,59.2,30.08,WSW,254,0.0,0.0,94,0.00,,,0.00,WeatherCatV1.11B39,2013-08-18 05:11:00,
2013-08-18 01:16:00,61.0,59.3,30.08,WSW,254,0.0,0.0,94,0.00,,,0.00,WeatherCatV1.11B39,2013-08-18 05:16:00,
2013-08-18 01:21:00,61.0,59.3,30.08,WSW,254,0.0,0.0,94,0.00,,,0.00,WeatherCatV1.11B39,2013-08-18 05:21:00,
2013-08-18 01:26:00,60.8,59.1,30.08,WSW,254,0.0,0.0,94,0.00,,,0.00,WeatherCatV1.11B39,2013-08-18 05:26:00,
2013-08-18 01:31:00,60.8,59.1,30.08,WSW,254,0.0,0.0,94,0.00,,,0.00,WeatherCatV1.11B39,2013-08-18 05:31:00,
2013-08-18 01:36:00,60.8,59.4,30.08,WSW,254,0.0,0.0,95,0.00,,,0.00,WeatherCatV1.11B39,2013-08-18 05:36:00,
2013-08-18 01:41:00,60.6,59.2,30.07,WSW,254,0.0,0.0,95,0.00,,,0.00,WeatherCatV1.11B39,2013-08-18 05:41:00,
2013-08-18 01:46:00,60.5,58.8,30.07,WSW,254,0.0,0.0,94,0.00,,,0.00,WeatherCatV1.11B39,2013-08-18 05:46:00,
2013-08-18 01:51:00,60.5,59.1,30.07,WSW,254,0.0,0.0,95,0.00,,,0.00,WeatherCatV1.11B39,2013-08-18 05:51:00,
2013-08-18 01:56:00,60.5,59.1,30.07,WSW,254,0.0,0.0,95,0.00,,,0.00,WeatherCatV1.11B39,2013-08-18 05:56:00,
2013-08-18 02:01:00,60.5,59.1,30.07,WSW,254,0.0,0.0,95,0.00,,,0.00,WeatherCatV1.11B39,2013-08-18 06:01:00,
2013-08-18 02:06:00,60.6,59.2,30.07,WSW,254,0.0,0.0,95,0.00,,,0.00,WeatherCatV1.11B39,2013-08-18 06:06:00,
2013-08-18 02:11:00,60.4,59.0,30.07,WSW,254,0.0,0.0,95,0.00,,,0.00,WeatherCatV1.11B39,2013-08-18 06:11:00,
2013-08-18 02:16:00,60.2,58.5,30.07,WSW,254,0.0,0.0,94,0.00,,,0.00,WeatherCatV1.11B39,2013-08-18 06:16:00,
2013-08-18 02:21:00,60.2,58.8,30.07,WSW,254,0.0,0.0,95,0.00,,,0.00,WeatherCatV1.11B39,2013-08-18 06:21:00,
2013-08-18 02:26:00,60.2,58.8,30.07,WSW,254,0.0,0.0,95,0.00,,,0.00,WeatherCatV1.11B39,2013-08-18 06:26:00,
2013-08-18 02:31:00,60.4,59.0,30.07,WSW,254,0.0,0.0,95,0.00,,,0.00,WeatherCatV1.11B39,2013-08-18 06:31:00,
2013-08-18 02:36:00,60.4,59.0,30.08,WSW,254,0.0,0.0,95,0.00,,,0.00,WeatherCatV1.11B39,2013-08-18 06:36:00,
2013-08-18 02:41:00,60.3,58.9,30.08,WSW,254,0.0,0.0,95,0.00,,,0.00,WeatherCatV1.11B39,2013-08-18 06:41:00,
2013-08-18 02:46:00,60.3,58.9,30.07,WSW,254,0.0,0.0,95,0.00,,,0.00,WeatherCatV1.11B39,2013-08-18 06:46:00,
2013-08-18 02:51:00,60.2,59.1,30.07,WSW,254,0.0,0.0,96,0.00,,,0.00,WeatherCatV1.11B39,2013-08-18 06:51:00,
2013-08-18 02:56:00,60.4,59.3,30.07,WSW,254,0.0,0.0,96,0.00,,,0.00,WeatherCatV1.11B39,2013-08-18 06:56:00,
2013-08-18 03:01:00,60.4,59.0,30.07,WSW,254,0.0,0.0,95,0.00,,,0.00,WeatherCatV1.11B39,2013-08-18 07:01:00,
2013-08-18 03:06:00,60.4,59.0,30.07,WSW,254,0.0,0.0,95,0.00,,,0.00,WeatherCatV1.11B39,2013-08-18 07:06:00,
2013-08-18 03:11:00,60.1,58.7,30.07,WSW,254,0.0,0.0,95,0.00,,,0.00,WeatherCatV1.11B39,2013-08-18 07:11:00,
2013-08-18 03:16:00,59.9,58.5,30.07,WSW,254,0.0,0.0,95,0.00,,,0.00,WeatherCatV1.11B39,2013-08-18 07:16:00,
2013-08-18 03:21:00,60.1,58.7,30.07,WSW,254,0.0,0.0,95,0.00,,,0.00,WeatherCatV1.11B39,2013-08-18 07:21:00,
2013-08-18 03:26:00,60.1,59.0,30.07,WSW,254,0.0,0.0,96,0.00,,,0.00,WeatherCatV1.11B39,2013-08-18 07:26:00,
2013-08-18 03:31:00,60.0,58.9,30.07,WSW,254,0.0,0.0,96,0.00,,,0.00,WeatherCatV1.11B39,2013-08-18 07:31:00,
2013-08-18 03:36:00,59.8,58.4,30.08,WSW,254,0.0,0.0,95,0.00,,,0.00,WeatherCatV1.11B39,2013-08-18 07:36:00,
2013-08-18 03:41:00,59.8,58.7,30.07,WSW,254,0.0,0.0,96,0.00,,,0.00,WeatherCatV1.11B39,2013-08-18 07:41:00,
2013-08-18 03:46:00,59.6,58.5,30.08,WSW,254,0.0,0.0,96,0.00,,,0.00,WeatherCatV1.11B39,2013-08-18 07:46:00,
2013-08-18 03:51:00,59.6,58.5,30.08,WSW,254,0.0,0.0,96,0.00,,,0.00,WeatherCatV1.11B39,2013-08-18 07:51:00,
2013-08-18 03:56:00,59.4,58.3,30.07,WSW,254,0.0,0.0,96,0.00,,,0.00,WeatherCatV1.11B39,2013-08-18 07:56:00,
2013-08-18 04:01:00,59.5,58.4,30.07,WSW,254,0.0,0.0,96,0.00,,,0.00,WeatherCatV1.11B39,2013-08-18 08:01:00,
2013-08-18 04:06:00,59.5,58.4,30.07,WSW,254,0.0,0.0,96,0.00,,,0.00,WeatherCatV1.11B39,2013-08-18 08:06:00,
2013-08-18 04:11:00,59.3,58.2,30.07,WSW,254,0.0,0.0,96,0.00,,,0.00,WeatherCatV1.11B39,2013-08-18 08:11:00,
2013-08-18 04:16:00,59.3,58.2,30.08,WSW,254,0.0,0.0,96,0.00,,,0.00,WeatherCatV1.11B39,2013-08-18 08:16:00,
2013-08-18 04:21:00,59.3,58.2,30.08,WSW,254,0.0,0.0,96,0.00,,,0.00,WeatherCatV1.11B39,2013-08-18 08:21:00,
2013-08-18 04:26:00,59.3,58.4,30.08,WSW,254,0.0,0.0,97,0.00,,,0.00,WeatherCatV1.11B39,2013-08-18 08:26:00,
2013-08-18 04:31:00,59.2,58.1,30.08,WSW,254,0.0,0.0,96,0.00,,,0.00,WeatherCatV1.11B39,2013-08-18 08:31:00,
2013-08-18 04:36:00,59.1,58.0,30.07,WSW,254,0.0,0.0,96,0.00,,,0.00,WeatherCatV1.11B39,2013-08-18 08:36:00,
2013-08-18 04:41:00,59.3,58.4,30.07,WSW,254,0.0,0.0,97,0.00,,,0.00,WeatherCatV1.11B39,2013-08-18 08:41:00,
2013-08-18 04:46:00,59.3,58.2,30.07,WSW,254,0.0,0.0,96,0.00,,,0.00,WeatherCatV1.11B39,2013-08-18 08:46:00,
2013-08-18 04:51:00,59.3,58.4,30.07,WSW,254,0.0,0.0,97,0.00,,,0.00,WeatherCatV1.11B39,2013-08-18 08:51:00,
2013-08-18 04:56:00,59.2,58.1,30.07,WSW,254,0.0,0.0,96,0.00,,,0.00,WeatherCatV1.11B39,2013-08-18 08:56:00,
2013-08-18 05:01:00,59.0,57.9,30.07,WSW,254,0.0,0.0,96,0.00,,,0.00,WeatherCatV1.11B39,2013-08-18 09:01:00,
2013-08-18 05:06:00,58.7,57.6,30.08,WSW,254,0.0,0.0,96,0.00,,,0.00,WeatherCatV1.11B39,2013-08-18 09:06:00,
2013-08-18 05:11:00,58.5,57.6,30.07,WSW,254,0.0,0.0,97,0.00,,,0.00,WeatherCatV1.11B39,2013-08-18 09:11:00,
2013-08-18 05:16:00,58.4,57.3,30.07,WSW,254,0.0,0.0,96,0.00,,,0.00,WeatherCatV1.11B39,2013-08-18 09:16:00,
2013-08-18 05:21:00,58.2,57.1,30.06,WSW,254,0.0,0.0,96,0.00,,,0.00,WeatherCatV1.11B39,2013-08-18 09:21:00,
2013-08-18 05:26:00,58.1,57.0,30.07,WSW,254,0.0,0.0,96,0.00,,,0.00,WeatherCatV1.11B39,2013-08-18 09:26:00,
2013-08-18 05:31:00,58.1,57.0,30.07,WSW,254,0.0,0.0,96,0.00,,,0.00,WeatherCatV1.11B39,2013-08-18 09:31:00,
2013-08-18 05:36:00,58.2,57.1,30.07,WSW,254,0.0,0.0,96,0.00,,,0.00,WeatherCatV1.11B39,2013-08-18 09:36:00,
2013-08-18 05:41:00,58.2,57.1,30.07,WSW,254,0.0,0.0,96,0.00,,,0.00,WeatherCatV1.11B39,2013-08-18 09:41:00,
2013-08-18 05:46:00,58.1,57.3,30.07,WSW,254,0.0,0.0,97,0.00,,,0.00,WeatherCatV1.11B39,2013-08-18 09:46:00,
2013-08-18 05:51:00,58.1,57.0,30.08,WSW,254,0.0,0.0,96,0.00,,,0.00,WeatherCatV1.11B39,2013-08-18 09:51:00,
2013-08-18 05:56:00,57.9,56.8,30.08,WSW,254,0.0,0.0,96,0.00,,,0.00,WeatherCatV1.11B39,2013-08-18 09:56:00,
2013-08-18 06:01:00,57.9,56.8,30.08,WSW,254,0.0,0.0,96,0.00,,,0.00,WeatherCatV1.11B39,2013-08-18 10:01:00,
2013-08-18 06:06:00,57.8,56.4,30.08,WSW,254,0.0,0.0,95,0.00,,,0.00,WeatherCatV1.11B39,2013-08-18 10:06:00,
2013-08-18 06:11:00,57.8,56.4,30.08,WSW,254,0.0,0.0,95,0.00,,,0.00,WeatherCatV1.11B39,2013-08-18 10:11:00,
2013-08-18 06:16:00,57.7,56.6,30.08,WSW,254,0.0,0.0,96,0.00,,,0.00,WeatherCatV1.11B39,2013-08-18 10:16:00,
2013-08-18 06:21:00,57.8,56.7,30.08,WSW,254,0.0,0.0,96,0.00,,,0.00,WeatherCatV1.11B39,2013-08-18 10:21:00,
2013-08-18 06:26:00,57.7,56.6,30.08,WSW,254,0.0,0.0,96,0.00,,,0.00,WeatherCatV1.11B39,2013-08-18 10:26:00,
2013-08-18 06:31:00,57.8,56.7,30.08,WSW,254,0.0,0.0,96,0.00,,,0.00,WeatherCatV1.11B39,2013-08-18 10:31:00,
2013-08-18 06:36:00,57.7,56.6,30.08,WSW,254,0.0,0.0,96,0.00,,,0.00,WeatherCatV1.11B39,2013-08-18 10:36:00,
2013-08-18 06:41:00,57.9,56.8,30.08,WSW,254,0.0,0.0,96,0.00,,,0.00,WeatherCatV1.11B39,2013-08-18 10:41:00,
2013-08-18 06:46:00,58.1,57.3,30.08,WSW,254,0.0,0.0,97,0.00,,,0.00,WeatherCatV1.11B39,2013-08-18 10:46:00,
2013-08-18 06:51:00,58.1,57.0,30.08,WSW,254,0.0,0.0,96,0.00,,,0.00,WeatherCatV1.11B39,2013-08-18 10:51:00,
2013-08-18 06:56:00,58.1,57.0,30.08,WSW,254,0.0,0.0,96,0.00,,,0.00,WeatherCatV1.11B39,2013-08-18 10:56:00,
2013-08-18 07:01:00,58.4,57.5,30.08,WSW,254,0.0,0.0,97,0.00,,,0.00,WeatherCatV1.11B39,2013-08-18 11:01:00,
2013-08-18 07:06:00,58.5,57.6,30.08,WSW,254,0.0,0.0,97,0.00,,,0.00,WeatherCatV1.11B39,2013-08-18 11:06:00,
2013-08-18 07:11:00,58.8,57.9,30.08,WSW,254,0.0,0.0,97,0.00,,,0.00,WeatherCatV1.11B39,2013-08-18 11:11:00,
2013-08-18 07:16:00,59.1,58.2,30.08,WSW,254,0.0,0.0,97,0.00,,,0.00,WeatherCatV1.11B39,2013-08-18 11:16:00,
2013-08-18 07:21:00,59.5,58.6,30.08,WSW,254,0.0,0.0,97,0.00,,,0.00,WeatherCatV1.11B39,2013-08-18 11:21:00,
2013-08-18 07:26:00,59.7,58.8,30.08,WSW,254,0.0,0.0,97,0.00,,,0.00,WeatherCatV1.11B39,2013-08-18 11:26:00,
2013-08-18 07:31:00,59.7,58.8,30.08,WSW,254,0.0,0.0,97,0.00,,,0.00,WeatherCatV1.11B39,2013-08-18 11:31:00,
2013-08-18 07:36:00,59.9,58.8,30.08,WSW,254,0.0,0.0,96,0.00,,,0.00,WeatherCatV1.11B39,2013-08-18 11:36:00,
2013-08-18 07:41:00,60.1,59.2,30.08,WSW,254,0.0,0.0,97,0.00,,,0.00,WeatherCatV1.11B39,2013-08-18 11:41:00,
2013-08-18 07:46:00,60.4,59.5,30.08,WSW,254,0.0,0.0,97,0.00,,,0.00,WeatherCatV1.11B39,2013-08-18 11:46:00,
2013-08-18 07:51:00,60.6,59.7,30.08,WSW,254,0.0,0.0,97,0.00,,,0.00,WeatherCatV1.11B39,2013-08-18 11:51:00,
2013-08-18 07:56:00,60.9,60.0,30.08,WSW,254,0.0,0.0,97,0.00,,,0.00,WeatherCatV1.11B39,2013-08-18 11:56:00,
2013-08-18 08:01:00,61.2,60.3,30.08,WSW,254,0.0,0.0,97,0.00,,,0.00,WeatherCatV1.11B39,2013-08-18 12:01:00,
2013-08-18 08:06:00,61.5,60.6,30.08,WSW,254,0.0,0.0,97,0.00,,,0.00,WeatherCatV1.11B39,2013-08-18 12:06:00,
2013-08-18 08:11:00,61.8,60.9,30.08,WSW,254,0.0,0.0,97,0.00,,,0.00,WeatherCatV1.11B39,2013-08-18 12:11:00,
2013-08-18 08:16:00,61.9,61.0,30.08,WSW,254,0.0,0.0,97,0.00,,,0.00,WeatherCatV1.11B39,2013-08-18 12:16:00,
2013-08-18 08:21:00,62.3,61.4,30.08,WSW,254,0.0,0.0,97,0.00,,,0.00,WeatherCatV1.11B39,2013-08-18 12:21:00,
2013-08-18 08:26:00,62.6,61.7,30.08,WSW,254,0.0,0.0,97,0.00,,,0.00,WeatherCatV1.11B39,2013-08-18 12:26:00,
2013-08-18 08:31:00,62.9,62.0,30.08,WSW,254,0.0,0.0,97,0.00,,,0.00,WeatherCatV1.11B39,2013-08-18 12:31:00,
2013-08-18 08:36:00,63.3,62.4,30.08,WSW,254,0.0,0.0,97,0.00,,,0.00,WeatherCatV1.11B39,2013-08-18 12:36:00,
2013-08-18 08:41:00,63.9,63.0,30.08,WSW,254,0.0,0.0,97,0.00,,,0.00,WeatherCatV1.11B39,2013-08-18 12:41:00,
2013-08-18 08:46:00,64.2,63.3,30.08,WSW,254,0.0,0.0,97,0.00,,,0.00,WeatherCatV1.11B39,2013-08-18 12:46:00,
2013-08-18 08:51:00,64.3,63.4,30.08,WSW,254,0.0,0.0,97,0.00,,,0.00,WeatherCatV1.11B39,2013-08-18 12:51:00,
2013-08-18 08:56:00,64.6,63.4,30.08,WSW,254,0.0,0.0,96,0.00,,,0.00,WeatherCatV1.11B39,2013-08-18 12:56:00,
2013-08-18 09:01:00,65.0,63.5,30.08,WSW,254,0.0,0.0,95,0.00,,,0.00,WeatherCatV1.11B39,2013-08-18 13:01:00,
2013-08-18 09:06:00,65.6,64.1,30.08,WSW,254,0.0,0.0,95,0.00,,,0.00,WeatherCatV1.11B39,2013-08-18 13:06:00,
2013-08-18 09:11:00,66.2,64.7,30.08,WSW,254,0.0,0.0,95,0.00,,,0.00,WeatherCatV1.11B39,2013-08-18 13:11:00,
2013-08-18 09:16:00,66.7,64.9,30.07,WSW,254,0.0,0.0,94,0.00,,,0.00,WeatherCatV1.11B39,2013-08-18 13:16:00,
2013-08-18 09:21:00,67.2,64.8,30.08,WSW,254,0.0,0.0,92,0.00,,,0.00,WeatherCatV1.11B39,2013-08-18 13:21:00,
2013-08-18 09:26:00,67.7,65.0,30.07,WSW,254,0.0,0.0,91,0.00,,,0.00,WeatherCatV1.11B39,2013-08-18 13:26:00,
2013-08-18 09:31:00,68.4,65.3,30.08,WSW,254,0.0,0.0,90,0.00,,,0.00,WeatherCatV1.11B39,2013-08-18 13:31:00,
2013-08-18 09:36:00,68.7,65.0,30.08,WSW,254,0.0,0.0,88,0.00,,,0.00,WeatherCatV1.11B39,2013-08-18 13:36:00,
2013-08-18 09:41:00,69.1,64.7,30.08,WSW,254,0.0,0.0,86,0.00,,,0.00,WeatherCatV1.11B39,2013-08-18 13:41:00,
2013-08-18 09:46:00,69.4,64.3,30.07,WSW,254,0.0,0.0,84,0.00,,,0.00,WeatherCatV1.11B39,2013-08-18 13:46:00,
2013-08-18 09:51:00,69.9,64.1,30.07,WSW,254,0.0,0.0,82,0.00,,,0.00,WeatherCatV1.11B39,2013-08-18 13:51:00,
2013-08-18 09:56:00,70.4,64.3,30.07,WSW,254,0.0,0.0,81,0.00,,,0.00,WeatherCatV1.11B39,2013-08-18 13:56:00,
2013-08-18 10:01:00,70.7,63.5,30.07,WSW,254,0.0,0.0,78,0.00,,,0.00,WeatherCatV1.11B39,2013-08-18 14:01:00,
2013-08-18 10:06:00,71.1,63.9,30.07,WSW,254,0.0,0.0,78,0.00,,,0.00,WeatherCatV1.11B39,2013-08-18 14:06:00,
2013-08-18 10:11:00,71.6,64.0,30.07,SSE,156,0.0,0.0,77,0.00,,,0.00,WeatherCatV1.11B39,2013-08-18 14:11:00,
2013-08-18 10:16:00,72.1,64.5,30.07,SSE,156,0.0,0.0,77,0.00,,,0.00,WeatherCatV1.11B39,2013-08-18 14:16:00,
2013-08-18 10:21:00,72.8,65.2,30.07,SSE,156,0.0,0.0,77,0.00,,,0.00,WeatherCatV1.11B39,2013-08-18 14:21:00,
2013-08-18 10:26:00,73.3,64.9,30.07,SE,126,0.0,0.0,75,0.00,,,0.00,WeatherCatV1.11B39,2013-08-18 14:26:00,
2013-08-18 10:31:00,74.0,65.2,30.08,SE,135,0.0,0.0,74,0.00,,,0.00,WeatherCatV1.11B39,2013-08-18 14:31:00,
2013-08-18 10:36:00,74.5,64.9,30.08,WSW,247,0.0,0.0,72,0.00,,,0.00,WeatherCatV1.11B39,2013-08-18 14:36:00,
2013-08-18 10:41:00,74.1,64.1,30.07,SW,233,0.0,0.0,71,0.00,,,0.00,WeatherCatV1.11B39,2013-08-18 14:41:00,
2013-08-18 10:46:00,74.2,64.2,30.07,SW,233,0.0,0.0,71,0.00,,,0.00,WeatherCatV1.11B39,2013-08-18 14:46:00,
2013-08-18 10:51:00,74.3,65.1,30.07,SW,233,0.0,0.0,73,0.00,,,0.00,WeatherCatV1.11B39,2013-08-18 14:51:00,
2013-08-18 10:56:00,74.6,64.6,30.07,SW,233,0.0,0.0,71,0.00,,,0.00,WeatherCatV1.11B39,2013-08-18 14:56:00,
2013-08-18 11:01:00,75.2,65.9,30.07,SW,233,0.0,0.0,73,0.00,,,0.00,WeatherCatV1.11B39,2013-08-18 15:01:00,
2013-08-18 11:06:00,75.5,65.4,30.07,SW,232,0.0,0.0,71,0.00,,,0.00,WeatherCatV1.11B39,2013-08-18 15:06:00,
2013-08-18 11:11:00,75.8,64.9,30.07,South,170,0.0,0.0,69,0.00,,,0.00,WeatherCatV1.11B39,2013-08-18 15:11:00,
2013-08-18 11:16:00,76.1,63.9,30.06,South,189,0.0,0.0,66,0.00,,,0.00,WeatherCatV1.11B39,2013-08-18 15:16:00,
2013-08-18 11:21:00,76.2,64.0,30.07,SSE,162,0.0,0.0,66,0.00,,,0.00,WeatherCatV1.11B39,2013-08-18 15:21:00,
2013-08-18 11:26:00,76.4,63.7,30.07,SSE,162,0.0,0.0,65,0.00,,,0.00,WeatherCatV1.11B39,2013-08-18 15:26:00,
2013-08-18 11:31:00,76.6,63.9,30.06,SSE,162,0.0,0.0,65,0.00,,,0.00,WeatherCatV1.11B39,2013-08-18 15:31:00,
2013-08-18 11:36:00,76.9,64.2,30.06,SSE,164,0.0,0.0,65,0.00,,,0.00,WeatherCatV1.11B39,2013-08-18 15:36:00,
2013-08-18 11:41:00,77.3,63.7,30.06,South,188,0.0,0.0,63,0.00,,,0.00,WeatherCatV1.11B39,2013-08-18 15:41:00,
2013-08-18 11:46:00,77.4,63.8,30.05,South,186,0.0,0.0,63,0.00,,,0.00,WeatherCatV1.11B39,2013-08-18 15:46:00,
2013-08-18 11:51:00,77.8,63.7,30.06,South,184,0.0,0.0,62,0.00,,,0.00,WeatherCatV1.11B39,2013-08-18 15:51:00,
2013-08-18 11:56:00,78.0,63.4,30.06,SSE,163,0.0,0.0,61,0.00,,,0.00,WeatherCatV1.11B39,2013-08-18 15:56:00,
2013-08-18 12:01:00,77.8,62.8,30.06,SSE,163,0.0,0.0,60,0.00,,,0.00,WeatherCatV1.11B39,2013-08-18 16:01:00,
2013-08-18 12:06:00,77.7,63.2,30.06,SSE,162,0.0,0.0,61,0.00,,,0.00,WeatherCatV1.11B39,2013-08-18 16:06:00,
2013-08-18 12:11:00,77.4,62.9,30.05,South,186,0.0,0.0,61,0.00,,,0.00,WeatherCatV1.11B39,2013-08-18 16:11:00,
2013-08-18 12:16:00,77.1,63.1,30.05,South,174,0.0,0.0,62,0.00,,,0.00,WeatherCatV1.11B39,2013-08-18 16:16:00,
2013-08-18 12:21:00,76.4,62.4,30.05,SSW,197,0.0,0.0,62,0.00,,,0.00,WeatherCatV1.11B39,2013-08-18 16:21:00,
2013-08-18 12:26:00,75.9,61.9,30.05,South,186,0.0,0.0,62,0.00,,,0.00,WeatherCatV1.11B39,2013-08-18 16:26:00,
2013-08-18 12:31:00,75.7,62.2,30.05,SSE,147,0.0,0.0,63,0.00,,,0.00,WeatherCatV1.11B39,2013-08-18 16:31:00,
2013-08-18 12:36:00,75.7,61.3,30.05,South,184,0.0,0.0,61,0.00,,,0.00,WeatherCatV1.11B39,2013-08-18 16:36:00,
2013-08-18 12:41:00,75.9,61.5,30.05,SSE,165,0.0,0.0,61,0.00,,,0.00,WeatherCatV1.11B39,2013-08-18 16:41:00,
2013-08-18 12:46:00,76.0,60.6,30.05,SSW,200,0.0,0.0,59,0.00,,,0.00,WeatherCatV1.11B39,2013-08-18 16:46:00,
2013-08-18 12:51:00,76.2,60.3,30.05,SE,139,0.0,0.0,58,0.00,,,0.00,WeatherCatV1.11B39,2013-08-18 16:51:00,
2013-08-18 12:56:00,75.9,59.6,30.05,WSW,254,0.0,4.0,57,0.00,,,0.00,WeatherCatV1.11B39,2013-08-18 16:56:00,
2013-08-18 13:01:00,75.9,59.6,30.05,SSE,159,0.0,0.0,57,0.00,,,0.00,WeatherCatV1.11B39,2013-08-18 17:01:00,
2013-08-18 13:06:00,75.7,59.9,30.04,South,189,0.0,0.0,58,0.00,,,0.00,WeatherCatV1.11B39,2013-08-18 17:06:00,
2013-08-18 13:11:00,75.7,60.3,30.04,SSE,165,0.0,0.0,59,0.00,,,0.00,WeatherCatV1.11B39,2013-08-18 17:11:00,
2013-08-18 13:16:00,75.7,61.3,30.04,WSW,240,0.0,0.0,61,0.00,,,0.00,WeatherCatV1.11B39,2013-08-18 17:16:00,
2013-08-18 13:21:00,75.4,61.0,30.04,West,269,0.0,0.0,61,0.00,,,0.00,WeatherCatV1.11B39,2013-08-18 17:21:00,
2013-08-18 13:26:00,75.2,59.9,30.04,SSE,158,0.0,0.0,59,0.00,,,0.00,WeatherCatV1.11B39,2013-08-18 17:26:00,
2013-08-18 13:31:00,75.0,60.2,30.04,WSW,241,0.0,0.0,60,0.00,,,0.00,WeatherCatV1.11B39,2013-08-18 17:31:00,
2013-08-18 13:36:00,74.8,60.4,30.04,SW,226,0.0,0.0,61,0.00,,,0.00,WeatherCatV1.11B39,2013-08-18 17:36:00,
2013-08-18 13:41:00,74.8,61.3,30.04,WSW,250,0.0,0.0,63,0.00,,,0.00,WeatherCatV1.11B39,2013-08-18 17:41:00,
2013-08-18 13:46:00,74.8,60.9,30.03,WSW,243,0.0,0.0,62,0.00,,,0.00,WeatherCatV1.11B39,2013-08-18 17:46:00,
2013-08-18 13:51:00,74.8,60.9,30.03,WSW,239,0.0,0.0,62,0.00,,,0.00,WeatherCatV1.11B39,2013-08-18 17:51:00,
2013-08-18 13:56:00,74.8,61.3,30.03,WSW,241,0.0,0.0,63,0.00,,,0.00,WeatherCatV1.11B39,2013-08-18 17:56:00,
2013-08-18 14:01:00,74.8,61.3,30.03,SW,231,0.0,0.0,63,0.00,,,0.00,WeatherCatV1.11B39,2013-08-18 18:01:00,
2013-08-18 14:06:00,75.0,61.1,30.03,WSW,248,0.0,0.0,62,0.00,,,0.00,WeatherCatV1.11B39,2013-08-18 18:06:00,
2013-08-18 14:11:00,75.0,60.6,30.03,WSW,241,0.0,0.0,61,0.00,,,0.00,WeatherCatV1.11B39,2013-08-18 18:11:00,
2013-08-18 14:16:00,75.2,61.7,30.02,WSW,247,0.0,2.0,63,0.00,,,0.00,WeatherCatV1.11B39,2013-08-18 18:16:00,
2013-08-18 14:21:00,75.1,60.7,30.02,SSW,197,0.0,0.0,61,0.00,,,0.00,WeatherCatV1.11B39,2013-08-18 18:21:00,
2013-08-18 14:26:00,75.3,61.4,30.02,WSW,257,0.0,4.0,62,0.00,,,0.00,WeatherCatV1.11B39,2013-08-18 18:26:00,
2013-08-18 14:31:00,75.2,60.8,30.01,WSW,242,0.0,0.0,61,0.00,,,0.00,WeatherCatV1.11B39,2013-08-18 18:31:00,
2013-08-18 14:36:00,75.1,59.8,30.01,WSW,237,0.0,0.0,59,0.00,,,0.00,WeatherCatV1.11B39,2013-08-18 18:36:00,
2013-08-18 14:41:00,75.2,61.3,30.01,WSW,243,0.0,0.0,62,0.00,,,0.00,WeatherCatV1.11B39,2013-08-18 18:41:00,
2013-08-18 14:46:00,75.0,60.6,30.01,WSW,237,0.0,1.0,61,0.00,,,0.00,WeatherCatV1.11B39,2013-08-18 18:46:00,
2013-08-18 14:51:00,75.0,59.2,30.01,WSW,250,0.0,0.0,58,0.00,,,0.00,WeatherCatV1.11B39,2013-08-18 18:51:00,
2013-08-18 14:57:00,75.1,59.8,30.00,WSW,248,0.0,0.0,59,0.00,,,0.00,WeatherCatV1.11B39,2013-08-18 18:57:00,
2013-08-18 15:02:00,75.2,60.3,30.01,WSW,248,0.0,0.0,60,0.00,,,0.00,WeatherCatV1.11B39,2013-08-18 19:02:00,
2013-08-18 15:07:00,75.2,59.4,30.01,WSW,248,0.0,1.0,58,0.00,,,0.00,WeatherCatV1.11B39,2013-08-18 19:07:00,
2013-08-18 15:12:00,75.1,59.3,30.00,WSW,252,6.0,6.0,58,0.00,,,0.00,WeatherCatV1.11B39,2013-08-18 19:12:00,
2013-08-18 15:17:00,75.1,60.2,30.00,WSW,242,0.0,0.0,60,0.00,,,0.00,WeatherCatV1.11B39,2013-08-18 19:17:00,
2013-08-18 15:22:00,75.2,59.9,30.00,WSW,242,0.0,1.0,59,0.00,,,0.00,WeatherCatV1.11B39,2013-08-18 19:22:00,
2013-08-18 15:27:00,75.2,59.4,29.99,WSW,240,0.0,4.0,58,0.00,,,0.00,WeatherCatV1.11B39,2013-08-18 19:27:00,
2013-08-18 15:32:00,75.2,60.8,29.99,WSW,249,0.0,3.0,61,0.00,,,0.00,WeatherCatV1.11B39,2013-08-18 19:32:00,
2013-08-18 15:37:00,75.2,60.8,29.99,WSW,248,0.0,0.0,61,0.00,,,0.00,WeatherCatV1.11B39,2013-08-18 19:37:00,
2013-08-18 15:42:00,75.3,60.0,29.99,WSW,249,0.0,0.0,59,0.00,,,0.00,WeatherCatV1.11B39,2013-08-18 19:42:00,
2013-08-18 15:47:00,75.3,59.0,29.98,WSW,249,0.0,0.0,57,0.00,,,0.00,WeatherCatV1.11B39,2013-08-18 19:47:00,
2013-08-18 15:52:00,75.3,60.9,29.98,SW,220,0.0,0.0,61,0.00,,,0.00,WeatherCatV1.11B39,2013-08-18 19:52:00,
2013-08-18 15:57:00,75.3,60.4,29.98,SW,220,0.0,0.0,60,0.00,,,0.00,WeatherCatV1.11B39,2013-08-18 19:57:00,
2013-08-18 16:02:00,75.3,60.0,29.98,SW,220,0.0,0.0,59,0.00,,,0.00,WeatherCatV1.11B39,2013-08-18 20:02:00,
2013-08-18 16:07:00,75.1,60.2,29.97,WSW,249,0.0,0.0,60,0.00,,,0.00,WeatherCatV1.11B39,2013-08-18 20:07:00,
2013-08-18 16:12:00,74.8,61.3,29.97,WSW,249,0.0,0.0,63,0.00,,,0.00,WeatherCatV1.11B39,2013-08-18 20:12:00,
2013-08-18 16:17:00,74.6,61.6,29.97,WSW,249,0.0,0.0,64,0.00,,,0.00,WeatherCatV1.11B39,2013-08-18 20:17:00,
2013-08-18 16:22:00,74.3,62.6,29.97,WSW,249,0.0,0.0,67,0.00,,,0.00,WeatherCatV1.11B39,2013-08-18 20:22:00,
2013-08-18 16:27:00,73.9,61.8,29.97,WSW,249,0.0,0.0,66,0.00,,,0.00,WeatherCatV1.11B39,2013-08-18 20:27:00,
2013-08-18 16:32:00,73.6,62.4,29.97,WSW,249,0.0,0.0,68,0.00,,,0.00,WeatherCatV1.11B39,2013-08-18 20:32:00,
2013-08-18 16:37:00,73.4,63.0,29.97,WSW,249,0.0,0.0,70,0.00,,,0.00,WeatherCatV1.11B39,2013-08-18 20:37:00,
2013-08-18 16:42:00,73.3,63.7,29.97,WSW,249,0.0,0.0,72,0.00,,,0.00,WeatherCatV1.11B39,2013-08-18 20:42:00,
2013-08-18 16:47:00,73.1,63.5,29.96,WSW,249,0.0,0.0,72,0.00,,,0.00,WeatherCatV1.11B39,2013-08-18 20:47:00,
2013-08-18 16:52:00,73.1,64.3,29.97,WSW,249,0.0,0.0,74,0.00,,,0.00,WeatherCatV1.11B39,2013-08-18 20:52:00,
2013-08-18 16:57:00,73.1,64.3,29.96,WSW,249,0.0,0.0,74,0.00,,,0.00,WeatherCatV1.11B39,2013-08-18 20:57:00,
2013-08-18 17:02:00,73.1,64.7,29.97,WSW,249,0.0,0.0,75,0.00,,,0.00,WeatherCatV1.11B39,2013-08-18 21:02:00,
2013-08-18 17:07:00,72.9,62.1,29.97,WSW,249,0.0,0.0,69,0.00,,,0.00,WeatherCatV1.11B39,2013-08-18 21:07:00,
2013-08-18 17:12:00,73.3,62.5,29.97,WSW,249,0.0,0.0,69,0.00,,,0.00,WeatherCatV1.11B39,2013-08-18 21:12:00,
2013-08-18 17:17:00,73.3,62.1,29.97,WSW,249,0.0,0.0,68,0.00,,,0.00,WeatherCatV1.11B39,2013-08-18 21:17:00,
2013-08-18 17:22:00,73.5,61.4,29.96,WSW,249,0.0,0.0,66,0.00,,,0.00,WeatherCatV1.11B39,2013-08-18 21:22:00,
2013-08-18 17:27:00,73.4,60.5,29.96,WSW,249,0.0,0.0,64,0.00,,,0.00,WeatherCatV1.11B39,2013-08-18 21:27:00,
2013-08-18 17:32:00,73.5,60.1,29.96,WSW,249,0.0,0.0,63,0.00,,,0.00,WeatherCatV1.11B39,2013-08-18 21:32:00,
2013-08-18 17:37:00,73.4,60.5,29.95,WSW,249,0.0,0.0,64,0.00,,,0.00,WeatherCatV1.11B39,2013-08-18 21:37:00,
2013-08-18 17:42:00,73.4,62.2,29.95,WSW,249,0.0,0.0,68,0.00,,,0.00,WeatherCatV1.11B39,2013-08-18 21:42:00,
2013-08-18 17:47:00,73.0,62.2,29.96,WSW,249,0.0,0.0,69,0.00,,,0.00,WeatherCatV1.11B39,2013-08-18 21:47:00,
2013-08-18 17:52:00,72.8,62.8,29.96,WSW,249,0.0,0.0,71,0.00,,,0.00,WeatherCatV1.11B39,2013-08-18 21:52:00,
2013-08-18 17:57:00,72.8,64.0,29.96,WSW,249,0.0,0.0,74,0.00,,,0.00,WeatherCatV1.11B39,2013-08-18 21:57:00,
2013-08-18 18:02:00,72.4,64.0,29.95,WSW,249,0.0,0.0,75,0.00,,,0.00,WeatherCatV1.11B39,2013-08-18 22:02:00,
2013-08-18 18:07:00,72.1,64.1,29.95,WSW,249,0.0,0.0,76,0.00,,,0.00,WeatherCatV1.11B39,2013-08-18 22:07:00,
2013-08-18 18:12:00,71.7,62.2,29.95,WSW,249,0.0,0.0,72,0.00,,,0.00,WeatherCatV1.11B39,2013-08-18 22:12:00,
2013-08-18 18:17:00,71.9,61.6,29.95,WSW,249,0.0,0.0,70,0.00,,,0.00,WeatherCatV1.11B39,2013-08-18 22:17:00,
2013-08-18 18:22:00,72.1,61.4,29.95,WSW,249,0.0,0.0,69,0.00,,,0.00,WeatherCatV1.11B39,2013-08-18 22:22:00,
2013-08-18 18:27:00,72.1,61.4,29.95,WSW,249,0.0,0.0,69,0.00,,,0.00,WeatherCatV1.11B39,2013-08-18 22:27:00,
2013-08-18 18:32:00,72.3,61.1,29.95,WSW,249,0.0,0.0,68,0.00,,,0.00,WeatherCatV1.11B39,2013-08-18 22:32:00,
2013-08-18 18:37:00,72.1,60.9,29.95,WSW,249,0.0,0.0,68,0.00,,,0.00,WeatherCatV1.11B39,2013-08-18 22:37:00,
2013-08-18 18:42:00,72.1,60.5,29.94,WSW,249,0.0,0.0,67,0.00,,,0.00,WeatherCatV1.11B39,2013-08-18 22:42:00,
2013-08-18 18:47:00,72.1,60.5,29.95,WSW,249,0.0,1.0,67,0.00,,,0.00,WeatherCatV1.11B39,2013-08-18 22:47:00,
2013-08-18 18:52:00,71.9,60.3,29.94,WSW,249,0.0,0.0,67,0.00,,,0.00,WeatherCatV1.11B39,2013-08-18 22:52:00,
2013-08-18 18:57:00,71.9,62.0,29.95,WSW,249,0.0,0.0,71,0.00,,,0.00,WeatherCatV1.11B39,2013-08-18 22:57:00,
2013-08-18 19:02:00,71.7,63.0,29.94,WSW,249,0.0,0.0,74,0.00,,,0.00,WeatherCatV1.11B39,2013-08-18 23:02:00,
2013-08-18 19:07:00,71.2,62.9,29.95,WSW,249,0.0,0.0,75,0.00,,,0.00,WeatherCatV1.11B39,2013-08-18 23:07:00,
2013-08-18 19:12:00,70.9,62.9,29.94,WSW,249,0.0,0.0,76,0.00,,,0.00,WeatherCatV1.11B39,2013-08-18 23:12:00,
2013-08-18 19:17:00,70.6,63.0,29.94,WSW,249,0.0,0.0,77,0.00,,,0.00,WeatherCatV1.11B39,2013-08-18 23:17:00,
2013-08-18 19:22:00,70.2,62.3,29.94,WSW,249,0.0,0.0,76,0.00,,,0.00,WeatherCatV1.11B39,2013-08-18 23:22:00,
2013-08-18 19:27:00,70.4,61.7,29.94,WSW,249,0.0,0.0,74,0.00,,,0.00,WeatherCatV1.11B39,2013-08-18 23:27:00,
2013-08-18 19:32:00,70.5,61.8,29.94,WSW,249,0.0,0.0,74,0.00,,,0.00,WeatherCatV1.11B39,2013-08-18 23:32:00,
2013-08-18 19:37:00,70.7,62.0,29.94,WSW,249,0.0,0.0,74,0.00,,,0.00,WeatherCatV1.11B39,2013-08-18 23:37:00,
2013-08-18 19:42:00,70.6,62.3,29.94,WSW,249,0.0,0.0,75,0.00,,,0.00,WeatherCatV1.11B39,2013-08-18 23:42:00,
2013-08-18 19:47:00,70.4,62.5,29.95,WSW,249,0.0,0.0,76,0.00,,,0.00,WeatherCatV1.11B39,2013-08-18 23:47:00,
2013-08-18 19:52:00,70.2,63.0,29.94,WSW,249,0.0,0.0,78,0.00,,,0.00,WeatherCatV1.11B39,2013-08-18 23:52:00,
2013-08-18 19:57:00,69.7,62.5,29.95,WSW,249,0.0,0.0,78,0.00,,,0.00,WeatherCatV1.11B39,2013-08-18 23:57:00,
2013-08-18 20:02:00,69.2,62.8,29.95,WSW,249,0.0,0.0,80,0.00,,,0.00,WeatherCatV1.11B39,2013-08-19 00:02:00,
2013-08-18 20:07:00,68.8,62.4,29.95,WSW,249,0.0,0.0,80,0.00,,,0.00,WeatherCatV1.11B39,2013-08-19 00:07:00,
2013-08-18 20:12:00,68.5,62.8,29.95,WSW,249,0.0,0.0,82,0.00,,,0.00,WeatherCatV1.11B39,2013-08-19 00:12:00,
2013-08-18 20:17:00,68.4,62.7,29.95,WSW,249,0.0,0.0,82,0.00,,,0.00,WeatherCatV1.11B39,2013-08-19 00:17:00,
2013-08-18 20:22:00,68.2,62.5,29.95,WSW,249,0.0,0.0,82,0.00,,,0.00,WeatherCatV1.11B39,2013-08-19 00:22:00,
2013-08-18 20:27:00,68.0,62.6,29.94,WSW,249,0.0,0.0,83,0.00,,,0.00,WeatherCatV1.11B39,2013-08-19 00:27:00,
2013-08-18 20:32:00,67.9,62.9,29.94,WSW,249,0.0,0.0,84,0.00,,,0.00,WeatherCatV1.11B39,2013-08-19 00:32:00,
2013-08-18 20:37:00,67.6,62.6,29.94,WSW,249,0.0,0.0,84,0.00,,,0.00,WeatherCatV1.11B39,2013-08-19 00:37:00,
2013-08-18 20:42:00,67.4,62.4,29.94,WSW,249,0.0,0.0,84,0.00,,,0.00,WeatherCatV1.11B39,2013-08-19 00:42:00,
2013-08-18 20:47:00,67.2,62.2,29.94,WSW,249,0.0,0.0,84,0.00,,,0.00,WeatherCatV1.11B39,2013-08-19 00:47:00,
2013-08-18 20:52:00,67.0,62.0,29.94,WSW,249,0.0,0.0,84,0.00,,,0.00,WeatherCatV1.11B39,2013-08-19 00:52:00,
2013-08-18 20:57:00,66.9,62.2,29.94,WSW,249,0.0,0.0,85,0.00,,,0.00,WeatherCatV1.11B39,2013-08-19 00:57:00,
2013-08-18 21:02:00,66.7,61.7,29.94,WSW,249,0.0,0.0,84,0.00,,,0.00,WeatherCatV1.11B39,2013-08-19 01:02:00,
2013-08-18 21:07:00,66.7,61.7,29.94,WSW,249,0.0,0.0,84,0.00,,,0.00,WeatherCatV1.11B39,2013-08-19 01:07:00,
2013-08-18 21:12:00,66.7,61.7,29.94,WSW,249,0.0,0.0,84,0.00,,,0.00,WeatherCatV1.11B39,2013-08-19 01:12:00,
2013-08-18 21:17:00,66.6,61.6,29.94,WSW,249,0.0,0.0,84,0.00,,,0.00,WeatherCatV1.11B39,2013-08-19 01:17:00,
2013-08-18 21:22:00,66.6,61.9,29.94,WSW,249,0.0,0.0,85,0.00,,,0.00,WeatherCatV1.11B39,2013-08-19 01:22:00,
2013-08-18 21:27:00,66.4,61.4,29.94,WSW,249,0.0,0.0,84,0.00,,,0.00,WeatherCatV1.11B39,2013-08-19 01:27:00,
2013-08-18 21:32:00,66.2,61.2,29.94,WSW,249,0.0,0.0,84,0.00,,,0.00,WeatherCatV1.11B39,2013-08-19 01:32:00,
2013-08-18 21:37:00,66.3,61.6,29.94,WSW,249,0.0,0.0,85,0.00,,,0.00,WeatherCatV1.11B39,2013-08-19 01:37:00,
2013-08-18 21:42:00,66.4,61.7,29.94,WSW,249,0.0,0.0,85,0.00,,,0.00,WeatherCatV1.11B39,2013-08-19 01:42:00,
2013-08-18 21:47:00,66.4,62.1,29.93,WSW,249,0.0,0.0,86,0.00,,,0.00,WeatherCatV1.11B39,2013-08-19 01:47:00,
2013-08-18 21:52:00,66.3,62.0,29.93,WSW,249,0.0,0.0,86,0.00,,,0.00,WeatherCatV1.11B39,2013-08-19 01:52:00,
2013-08-18 21:57:00,66.1,62.1,29.93,WSW,249,0.0,0.0,87,0.00,,,0.00,WeatherCatV1.11B39,2013-08-19 01:57:00,
2013-08-18 22:02:00,65.9,61.9,29.93,WSW,249,0.0,0.0,87,0.00,,,0.00,WeatherCatV1.11B39,2013-08-19 02:02:00,
2013-08-18 22:07:00,65.8,62.1,29.93,WSW,249,0.0,0.0,88,0.00,,,0.00,WeatherCatV1.11B39,2013-08-19 02:07:00,
2013-08-18 22:12:00,65.6,61.9,29.93,WSW,249,0.0,0.0,88,0.00,,,0.00,WeatherCatV1.11B39,2013-08-19 02:12:00,
2013-08-18 22:17:00,65.4,61.7,29.92,WSW,249,0.0,0.0,88,0.00,,,0.00,WeatherCatV1.11B39,2013-08-19 02:17:00,
2013-08-18 22:22:00,65.3,61.6,29.93,WSW,249,0.0,0.0,88,0.00,,,0.00,WeatherCatV1.11B39,2013-08-19 02:22:00,
2013-08-18 22:27:00,65.1,61.5,29.92,WSW,249,0.0,0.0,88,0.00,,,0.00,WeatherCatV1.11B39,2013-08-19 02:27:00,
2013-08-18 22:32:00,65.1,61.5,29.93,WSW,249,0.0,0.0,88,0.00,,,0.00,WeatherCatV1.11B39,2013-08-19 02:32:00,
2013-08-18 22:37:00,65.1,62.1,29.92,WSW,249,0.0,0.0,90,0.00,,,0.00,WeatherCatV1.11B39,2013-08-19 02:37:00,
2013-08-18 22:42:00,65.0,61.7,29.92,WSW,249,0.0,0.0,89,0.00,,,0.00,WeatherCatV1.11B39,2013-08-19 02:42:00,
2013-08-18 22:47:00,64.7,61.4,29.92,WSW,249,0.0,0.0,89,0.00,,,0.00,WeatherCatV1.11B39,2013-08-19 02:47:00,
2013-08-18 22:52:00,64.7,61.7,29.91,WSW,249,0.0,0.0,90,0.00,,,0.00,WeatherCatV1.11B39,2013-08-19 02:52:00,
2013-08-18 22:57:00,64.7,61.7,29.91,WSW,249,0.0,0.0,90,0.00,,,0.00,WeatherCatV1.11B39,2013-08-19 02:57:00,
2013-08-18 23:02:00,64.6,62.2,29.91,WSW,249,0.0,0.0,92,0.00,,,0.00,WeatherCatV1.11B39,2013-08-19 03:02:00,
2013-08-18 23:07:00,64.5,62.1,29.91,WSW,249,0.0,0.0,92,0.00,,,0.00,WeatherCatV1.11B39,2013-08-19 03:07:00,
2013-08-18 23:12:00,64.5,62.1,29.91,WSW,249,0.0,0.0,92,0.00,,,0.00,WeatherCatV1.11B39,2013-08-19 03:12:00,
2013-08-18 23:17:00,64.3,61.9,29.90,WSW,249,0.0,0.0,92,0.00,,,0.00,WeatherCatV1.11B39,2013-08-19 03:17:00,
2013-08-18 23:22:00,64.2,61.8,29.91,WSW,249,0.0,0.0,92,0.00,,,0.00,WeatherCatV1.11B39,2013-08-19 03:22:00,
2013-08-18 23:27:00,64.2,61.8,29.91,WSW,249,0.0,0.0,92,0.00,,,0.00,WeatherCatV1.11B39,2013-08-19 03:27:00,
2013-08-18 23:32:00,64.0,61.6,29.91,WSW,249,0.0,0.0,92,0.00,,,0.00,WeatherCatV1.11B39,2013-08-19 03:32:00,
2013-08-18 23:37:00,64.0,61.9,29.91,WSW,249,0.0,0.0,93,0.00,,,0.00,WeatherCatV1.11B39,2013-08-19 03:37:00,
2013-08-18 23:42:00,63.9,61.5,29.91,WSW,249,0.0,0.0,92,0.00,,,0.00,WeatherCatV1.11B39,2013-08-19 03:42:00,
2013-08-18 23:47:00,63.7,61.6,29.90,WSW,249,0.0,0.0,93,0.00,,,0.00,WeatherCatV1.11B39,2013-08-19 03:47:00,
2013-08-18 23:52:00,63.7,61.6,29.90,WSW,249,0.0,0.0,93,0.00,,,0.00,WeatherCatV1.11B39,2013-08-19 03:52:00,
2013-08-18 23:57:00,63.5,61.4,29.90,WSW,249,0.0,0.0,93,0.00,,,0.00,WeatherCatV1.11B39,2013-08-19 03:57:00,